Date String (YYYY-MM-DD hh:mm:ss) UTC,Instrument flags,absolute air pressure of the measurement (hPa),sample flow rate (lpm),inlet stack bypass flow (lpm),air temperature of the measurement (°C),ambient temperature measured by the external sensor (°C),aerosol sample conditioner tube jacket temperature (°C),OPC LED temperature (°C),internal box temperature (°C),relative humidity of the measurement (%),span deviation,mass concentration of particles derived from Lorenz-Mie calculation of OPC scattering (μg/m³),mass concentration of particles derived from Lorenz-Mie calculation of OPC scattering (μg/m³),mass concentration of particles derived from Lorenz-Mie calculation of OPC scattering (μg/m³)
DateTimeUTC,F1_M11,P_M11,Q1_M11,Q2_M11,T1_M11,T2_M11,T3_M11,T4_M11,T5_M11,U1_M11,ZSPAN_M11,X0_M11,X2_M11,X1_M11
2023-12-29 23:00:00,SystemResetWarning,0832.3,5.00,000.00,025.1,024.3,000.0,033.2,026.4,7.0,0000.0,0003.54,0000.75,0000.46
2023-12-29 23:01:00,SystemResetWarning,0832.3,5.00,000.00,025.1,024.4,000.0,033.2,026.4,6.9,0000.0,0003.55,0000.74,0000.45
2023-12-29 23:02:00,SystemResetWarning,0832.3,5.00,000.00,025.1,024.4,000.0,033.2,026.4,6.9,0000.0,0004.19,0000.80,0000.46
2023-12-29 23:03:00,SystemResetWarning,0832.3,5.00,000.00,025.1,024.4,000.0,033.2,026.4,6.9,0000.0,0003.72,0000.84,0000.46
2023-12-29 23:04:00,SystemResetWarning,0832.3,5.00,000.00,025.1,024.4,000.0,033.3,026.4,6.9,0000.0,0003.70,0000.86,0000.46
2023-12-29 23:05:00,SystemResetWarning,0832.3,5.00,000.00,025.2,024.4,000.0,033.3,026.4,7.0,0000.0,0003.63,0000.86,0000.47
2023-12-29 23:06:00,SystemResetWarning,0832.3,5.00,000.00,025.2,024.4,000.0,033.3,026.4,6.9,0000.0,0003.57,0000.85,0000.48
2023-12-29 23:07:00,SystemResetWarning,0832.3,5.00,000.00,025.2,024.4,000.0,033.3,026.4,6.9,0000.0,0003.76,0000.88,0000.47
2023-12-29 23:08:00,SystemResetWarning,0832.3,5.00,000.00,025.2,024.4,000.0,033.3,026.4,6.9,0000.0,0003.82,0000.89,0000.48
2023-12-29 23:09:00,SystemResetWarning,0832.3,5.00,000.00,025.2,024.4,000.0,033.3,026.4,6.9,0000.0,0003.93,0000.90,0000.49
2023-12-29 23:10:00,SystemResetWarning,0832.3,5.00,000.00,025.2,024.4,000.0,033.3,026.4,6.9,0000.0,0004.51,0000.90,0000.48
2023-12-29 23:11:00,SystemResetWarning,0832.3,5.00,000.00,025.2,024.4,000.0,033.3,026.4,7.0,0000.0,0004.48,0000.91,0000.48
2023-12-29 23:12:00,SystemResetWarning,0832.3,5.00,000.00,025.2,024.4,000.0,033.3,026.4,6.9,0000.0,0004.45,0000.91,0000.49
2023-12-29 23:13:00,SystemResetWarning,0832.3,5.00,000.00,025.2,024.4,000.0,033.3,026.4,6.9,0000.0,0003.94,0000.86,0000.48
2023-12-29 23:14:00,SystemResetWarning,0832.3,5.00,000.00,025.2,024.4,000.0,033.4,026.4,6.9,0000.0,0003.68,0000.80,0000.48
2023-12-29 23:15:00,SystemResetWarning,0832.3,5.00,000.00,025.2,024.4,000.0,033.4,026.4,7.0,0000.0,0003.73,0000.77,0000.49
2023-12-29 23:16:00,SystemResetWarning,0832.3,5.00,000.00,025.2,024.4,000.0,033.4,026.4,7.0,0000.0,0003.75,0000.78,0000.49
2023-12-29 23:17:00,SystemResetWarning,0832.3,5.00,000.00,025.2,024.4,000.0,033.4,026.4,7.0,0000.0,0003.74,0000.77,0000.48
2023-12-29 23:18:00,SystemResetWarning,0832.3,5.00,000.00,025.2,024.4,000.0,033.4,026.4,7.0,0000.0,0003.78,0000.74,0000.48
2023-12-29 23:19:00,SystemResetWarning,0832.2,5.00,000.00,025.2,024.4,000.0,033.4,026.4,7.0,0000.0,0003.78,0000.77,0000.49
2023-12-29 23:20:00,SystemResetWarning,0832.2,4.99,000.00,025.2,024.3,000.0,033.4,026.4,7.0,0000.0,0002.84,0000.81,0000.50
2023-12-29 23:21:00,SystemResetWarning,0832.2,4.99,000.00,025.2,024.3,000.0,033.4,026.4,7.0,0000.0,0003.43,0000.82,0000.50
2023-12-29 23:22:00,SystemResetWarning,0832.2,5.00,000.00,025.2,024.3,000.0,033.4,026.4,6.9,0000.0,0003.48,0000.84,0000.50
2023-12-29 23:23:00,SystemResetWarning,0832.2,5.01,000.00,025.2,024.3,000.0,033.4,026.4,6.9,0000.0,0003.54,0000.84,0000.51
2023-12-29 23:24:00,SystemResetWarning,0832.2,5.02,000.00,025.2,024.3,000.0,033.4,026.4,6.9,0000.0,0004.94,0000.89,0000.52
2023-12-29 23:25:00,SystemResetWarning,0832.2,4.99,000.00,025.2,024.3,000.0,033.4,026.4,6.9,0000.0,0005.09,0000.96,0000.53
2023-12-29 23:26:00,SystemResetWarning,0832.2,4.99,000.00,025.2,024.3,000.0,033.4,026.3,6.8,0000.0,0005.37,0000.97,0000.53
2023-12-29 23:27:00,SystemResetWarning,0832.1,5.01,000.00,025.2,024.3,000.0,033.4,026.4,6.8,0000.0,0006.84,0000.97,0000.53
2023-12-29 23:28:00,SystemResetWarning,0832.2,5.00,000.00,025.2,024.3,000.0,033.4,026.4,6.8,0000.0,0007.52,0000.98,0000.54
2023-12-29 23:29:00,SystemResetWarning,0832.2,5.01,000.00,025.2,024.3,000.0,033.4,026.3,6.8,0000.0,0007.50,0001.04,0000.54
2023-12-29 23:30:00,SystemResetWarning,0832.2,5.00,000.00,025.2,024.3,000.0,033.4,026.3,6.7,0000.0,0007.40,0001.02,0000.54
2023-12-29 23:31:00,SystemResetWarning,0832.2,5.00,000.00,025.2,024.3,000.0,033.4,026.3,6.7,0000.0,0007.61,0001.00,0000.53
2023-12-29 23:32:00,SystemResetWarning,0832.2,5.00,000.00,025.2,024.3,000.0,033.4,026.3,6.7,0000.0,0006.95,0000.98,0000.53
2023-12-29 23:33:00,SystemResetWarning,0832.2,4.99,000.00,025.2,024.3,000.0,033.4,026.3,6.7,0000.0,0007.79,0000.97,0000.53
2023-12-29 23:34:00,SystemResetWarning,0832.1,5.00,000.00,025.2,024.3,000.0,033.4,026.3,6.7,0000.0,0007.74,0001.00,0000.52
2023-12-29 23:35:00,SystemResetWarning,0832.1,5.00,000.00,025.2,024.3,000.0,033.4,026.4,6.7,0000.0,0006.98,0000.97,0000.52
2023-12-29 23:36:00,SystemResetWarning,0832.2,5.01,000.00,025.2,024.3,000.0,033.4,026.3,6.8,0000.0,0007.00,0000.94,0000.52
2023-12-29 23:37:00,SystemResetWarning,0832.2,5.01,000.00,025.2,024.3,000.0,033.4,026.4,6.8,0000.0,0007.17,0000.94,0000.51
2023-12-29 23:38:00,SystemResetWarning,0832.2,5.00,000.00,025.2,024.3,000.0,033.4,026.4,6.8,0000.0,0005.85,0000.93,0000.51
2023-12-29 23:39:00,SystemResetWarning,0832.2,4.99,000.00,025.2,024.3,000.0,033.4,026.4,6.8,0000.0,0005.16,0000.93,0000.51
2023-12-29 23:40:00,SystemResetWarning,0832.2,4.99,000.00,025.2,024.4,000.0,033.4,026.4,6.8,0000.0,0005.05,0000.88,0000.51
2023-12-29 23:41:00,SystemResetWarning,0832.2,5.00,000.00,025.2,024.4,000.0,033.4,026.5,6.8,0000.0,0005.66,0000.86,0000.51
2023-12-29 23:42:00,SystemResetWarning,0832.2,5.00,000.00,025.2,024.4,000.0,033.4,026.5,6.8,0000.0,0005.44,0000.88,0000.51
2023-12-29 23:43:00,SystemResetWarning,0832.2,5.00,000.00,025.2,024.4,000.0,033.5,026.5,6.8,0000.0,0005.44,0000.89,0000.51
2023-12-29 23:44:00,SystemResetWarning,0832.2,5.00,000.00,025.2,024.4,000.0,033.5,026.5,6.8,0000.0,0004.37,0000.88,0000.52
2023-12-29 23:45:00,SystemResetWarning,0832.2,5.00,000.00,025.2,024.4,000.0,033.5,026.5,6.9,0000.0,0004.15,0000.84,0000.52
2023-12-29 23:46:00,SystemResetWarning,0832.2,5.00,000.00,025.2,024.4,000.0,033.5,026.5,6.9,0000.0,0004.10,0000.83,0000.52
2023-12-29 23:47:00,SystemResetWarning,0832.2,5.00,000.00,025.2,024.4,000.0,033.5,026.5,6.9,0000.0,0003.98,0000.80,0000.51
2023-12-29 23:48:00,SystemResetWarning,0832.2,5.00,000.00,025.3,024.4,000.0,033.5,026.5,7.0,0000.0,0003.32,0000.79,0000.51
2023-12-29 23:49:00,SystemResetWarning,0832.2,5.00,000.00,025.3,024.5,000.0,033.5,026.5,6.9,0000.0,0003.06,0000.79,0000.51
2023-12-29 23:50:00,SystemResetWarning,0832.2,5.00,000.00,025.3,024.5,000.0,033.5,026.6,6.9,0000.0,0003.20,0000.81,0000.51
2023-12-29 23:51:00,SystemResetWarning,0832.2,5.00,000.00,025.3,024.6,000.0,033.5,026.6,6.9,0000.0,0003.28,0000.79,0000.51
2023-12-29 23:52:00,SystemResetWarning,0832.2,4.99,000.00,025.3,024.6,000.0,033.5,026.6,6.9,0000.0,0003.37,0000.81,0000.51
2023-12-29 23:53:00,SystemResetWarning,0832.2,4.99,000.00,025.3,024.6,000.0,033.5,026.6,6.9,0000.0,0002.52,0000.80,0000.51
2023-12-29 23:54:00,SystemResetWarning,0832.2,5.00,000.00,025.3,024.7,000.0,033.5,026.6,6.9,0000.0,0002.49,0000.81,0000.51
2023-12-29 23:55:00,SystemResetWarning,0832.3,5.00,000.00,025.4,024.7,000.0,033.5,026.7,6.9,0000.0,0002.81,0000.84,0000.51
2023-12-29 23:56:00,SystemResetWarning,0832.2,5.00,000.00,025.4,024.7,000.0,033.5,026.7,7.0,0000.0,0003.97,0000.89,0000.51
2023-12-29 23:57:00,SystemResetWarning,0832.2,5.00,000.00,025.4,024.7,000.0,033.6,026.7,7.1,0000.0,0004.27,0000.95,0000.51
2023-12-29 23:58:00,SystemResetWarning,0832.2,5.00,000.00,025.4,024.7,000.0,033.6,026.7,7.1,0000.0,0004.42,0001.02,0000.52
2023-12-29 23:59:00,SystemResetWarning,0832.2,5.00,000.00,025.4,024.8,000.0,033.6,026.7,7.1,0000.0,0004.52,0001.09,0000.53
